[[{"header":{"parameterUnit":"m.s-1","parameterCategory":2,"la1":30.2992,"la2":30.254,"lo1":-89.0895,"lo2":-89.0443,"dy":0.0025,"dx":0.0025,"nx":19,"ny":19,"refTime":"2026-05-02T09:00:00:Z","depth":"0","parameterNumber":2,"parameterNumberName":"U-component_of_CURRENTS"},"data":[0,0,0,0.2909,0.2911,0.2976,0.2976,0.3039,0.3039,0,0,0,0,0,0,0,0,0,0,0,0.2878,0.2879,0.2909,0.2911,0.2976,0.2976,0.3039,0.3039,0,0,0,0,0,0,0,0,0,0,0,0.2878,0.2879,0.288,0.2911,0.2976,0.2976,0.3038,0.2992,0,0,0,0,0,0,0,0,0,0,0.293,0.2901,0.2879,0.288,0.2912,0.2976,0.2976,0.299,0.2995,0.3007,0,0.3021,0,0.3041,0.3044,0.3044,0,0,0,0.29,0.2896,0.2926,0.288,0.2913,0.2976,0.2943,0.2993,0.2998,0.3014,0.3022,0.3025,0.3042,0.3044,0.3045,0.3154,0.3155,0,0,0.2896,0.2878,0.2922,0.293,0.2936,0.2942,0.2946,0.2996,0.2997,0.3023,0.3027,0.3043,0.3045,0.3045,0.3153,0.3154,0,0,0,0.2894,0.2875,0.2904,0.2927,0.2946,0.2944,0.2948,0.2994,0.3008,0.3028,0.3044,0.3045,0.3046,0.3153,0.3154,0.3198,0,0,0,0.2891,0.2875,0.2902,0.289,0.2945,0.2973,0.2945,0.3003,0.301,0.3043,0.3045,0.3047,0.3152,0.3153,0.3195,0.3236,0,0,0,0.2874,0.2873,0.2885,0.2889,0.2925,0.2972,0.2987,0.3005,0.3021,0.3044,0.3047,0.3151,0.3153,0.3193,0.3231,0.3306,0,0,0,0.2847,0.2868,0.2884,0.2917,0.2925,0.2997,0.2987,0.3028,0.305,0.3046,0.3152,0.3154,0.3192,0.3228,0.3303,0.3306,0.3323,0,0,0.286,0.2869,0.2892,0.2909,0.2975,0.2987,0.3057,0.3073,0.3079,0.313,0.3133,0.3196,0.3231,0.3306,0.3397,0.3411,0,0,0,0.2888,0.2902,0.2927,0.2967,0.3021,0.308,0.3097,0.3125,0.3174,0.3103,0.3216,0.3237,0.3283,0.3277,0.3289,0.3307,0.3161,0.3161,0.3161,0.2865,0.2907,0.2946,0.3005,0.3058,0.3141,0.3196,0.3239,0.3221,0.3257,0.3287,0.3396,0.339,0.3399,0.3416,0.3292,0.3292,0.3292,0.3292,0.287,0.2886,0.2952,0.3001,0.3085,0.3151,0.3287,0.3309,0.3411,0.3363,0.3404,0.3341,0.3414,0.3428,0.3295,0.3295,0.3294,0.3294,0.3294,0.283,0.2845,0.2878,0.2955,0.3052,0.3167,0.3303,0.3406,0.3467,0.3517,0.3524,0.3522,0.3526,0.3536,0.3537,0.3538,0.3538,0.3538,0.3539,0.2765,0.2805,0.2828,0.2922,0.2973,0.3115,0.3324,0.3423,0.3566,0.3602,0.3601,0.3575,0.3471,0.345,0.3547,0.3545,0.3544,0.3543,0.3543,0.2711,0.2732,0.2763,0.2803,0.2926,0.3002,0.3237,0.3465,0.3596,0.3671,0.3722,0.3651,0.3648,0.3637,0.3622,0.3757,0.3757,0.3757,0.3757,0.2658,0.268,0.2691,0.2728,0.2815,0.2945,0.306,0.3305,0.3618,0.3742,0.3821,0.375,0.374,0.3738,0.3725,0.3709,0.3864,0.3864,0.3864,0.2614,0.2634,0.2606,0.2653,0.2737,0.2834,0.2895,0.3103,0.3588,0.387,0.3854,0.3849,0.3741,0.3724,0.371,0.3691,0.366,0,0]},{"header":{"parameterUnit":"m.s-1","parameterCategory":2,"la1":30.2992,"la2":30.254,"lo1":-89.0895,"lo2":-89.0443,"dy":0.0025,"dx":0.0025,"nx":19,"ny":19,"refTime":"2026-05-02T09:00:00:Z","depth":"0","parameterNumber":3,"parameterNumberName":"V-component_of_CURRENTS"},"data":[0,0,0,-0.0061,-0.0061,-0.0103,-0.0103,-0.0163,-0.0164,0,0,0,0,0,0,0,0,0,0,0,-0.0048,-0.0048,-0.0061,-0.0061,-0.0103,-0.0103,-0.0163,-0.0164,0,0,0,0,0,0,0,0,0,0,0,-0.0048,-0.0048,-0.0048,-0.0062,-0.0103,-0.0103,-0.0163,-0.0133,0,0,0,0,0,0,0,0,0,0,-0.0093,-0.0071,-0.0048,-0.0048,-0.0062,-0.0103,-0.0104,-0.0131,-0.0135,-0.0143,0,-0.0143,0,-0.0149,-0.0167,-0.0167,0,0,0,-0.0073,-0.0068,-0.0081,-0.0048,-0.0062,-0.0103,-0.0088,-0.0133,-0.0137,-0.0147,-0.0144,-0.0146,-0.015,-0.0167,-0.0167,-0.0152,-0.0151,0,0,-0.007,-0.0056,-0.0079,-0.0083,-0.0065,-0.0086,-0.0089,-0.0136,-0.0135,-0.0144,-0.0147,-0.0151,-0.0167,-0.0168,-0.0152,-0.0152,0,0,0,-0.0056,-0.0054,-0.0067,-0.0081,-0.0085,-0.0087,-0.009,-0.0133,-0.0137,-0.0148,-0.0152,-0.0168,-0.0168,-0.0153,-0.0152,-0.0037,0,0,0,-0.0055,-0.0045,-0.0065,-0.0058,-0.0084,-0.0107,-0.0086,-0.0134,-0.014,-0.0152,-0.0168,-0.0169,-0.0154,-0.0153,-0.0042,0.0033,0,0,0,-0.0047,-0.0044,-0.0047,-0.0057,-0.007,-0.0106,-0.0114,-0.0136,-0.0141,-0.0167,-0.0169,-0.0154,-0.0153,-0.0046,0.0025,0.0067,0,0,0,-0.0035,-0.0002,-0.0047,-0.0009,-0.0069,-0.0047,-0.0114,-0.0114,-0.0128,-0.0168,-0.0154,-0.0152,-0.0047,0.002,0.0063,0.0167,0.0196,0,0,0.0022,0.0005,0.003,-0.0011,0.0045,-0.0042,0.0007,-0.0052,-0.0114,-0.0142,-0.0142,-0.004,0.0024,0.0066,0.0238,0.0266,0,0,0,0.0058,0.0079,0.0087,0.0103,0.0091,0.0095,0.0027,-0.0005,-0.0038,-0.0116,-0.0048,-0.001,0.0013,0.0065,0.0087,-0.0048,-0.0147,-0.0147,-0.0147,0.0155,0.0153,0.0211,0.021,0.0213,0.0186,0.0179,0.012,0.0043,0.004,0.0077,0.0184,0.0242,0.0259,0.0118,0.0056,0.0057,0.0057,0.0057,0.0266,0.0307,0.0301,0.0351,0.0342,0.0364,0.0321,0.0272,0.0255,0.0172,0.0187,0.0177,0.029,0.0131,0.0065,0.0063,0.0062,0.0062,0.0061,0.0334,0.036,0.0376,0.0448,0.0505,0.0488,0.057,0.0501,0.038,0.0401,0.0418,0.0417,0.0281,0.0396,0.0397,0.0397,0.0398,0.0398,0.0398,0.0398,0.0425,0.0497,0.056,0.0624,0.0712,0.0721,0.0719,0.0662,0.0572,0.0571,0.0315,0.0286,0.0278,0.0407,0.0405,0.0404,0.0403,0.0403,0.05,0.05,0.0623,0.0694,0.0859,0.103,0.1008,0.1031,0.0965,0.0957,0.0588,0.0642,0.0613,0.0595,0.0593,0.0796,0.0796,0.0796,0.0796,0.0566,0.0575,0.0749,0.0893,0.1069,0.1184,0.1385,0.1357,0.1041,0.0847,0.067,0.0594,0.0584,0.0545,0.0528,0.052,0.07,0.0699,0.0699,0.0646,0.0689,0.0832,0.0961,0.1167,0.1366,0.1586,0.1647,0.1119,0.0672,0.0461,0.0465,0.0323,0.0318,0.0227,0.0214,0.0189,0,0]}],[{"header":{"parameterUnit":"m.s-1","parameterCategory":2,"la1":30.2992,"la2":30.254,"lo1":-89.0895,"lo2":-89.0443,"dy":0.0025,"dx":0.0025,"nx":19,"ny":19,"refTime":"2026-05-02T09:00:00:Z","depth":"2","parameterNumber":2,"parameterNumberName":"U-component_of_CURRENTS"},"data":[0,0,0,0.2821,0.2823,0.2897,0.2897,0.2963,0.2963,0,0,0,0,0,0,0,0,0,0,0,0.2789,0.2789,0.2821,0.2823,0.2897,0.2897,0.2962,0.2963,0,0,0,0,0,0,0,0,0,0,0,0.2789,0.2789,0.279,0.2824,0.2897,0.2897,0.2962,0.2911,0,0,0,0,0,0,0,0,0,0,0.2842,0.2814,0.2789,0.279,0.2824,0.2897,0.2897,0.2909,0.2914,0.2925,0,0.2942,0,0.2962,0.2968,0.2968,0,0,0,0.2813,0.281,0.284,0.279,0.2825,0.2896,0.286,0.2912,0.2918,0.2932,0.2943,0.2946,0.2963,0.2968,0.2969,0.3077,0.3077,0,0,0.2808,0.2792,0.2836,0.2844,0.2852,0.2858,0.2863,0.2916,0.2919,0.2943,0.2948,0.2965,0.2969,0.2969,0.3076,0.3077,0,0,0,0.2804,0.2789,0.2817,0.284,0.2861,0.2861,0.2866,0.2916,0.2929,0.2949,0.2965,0.2969,0.297,0.3076,0.3077,0.3122,0,0,0,0.2801,0.2787,0.2815,0.2804,0.286,0.2893,0.2865,0.2925,0.2932,0.2965,0.2969,0.2971,0.3075,0.3076,0.3119,0.3159,0,0,0,0.2784,0.2785,0.2798,0.2804,0.2843,0.2893,0.2908,0.2927,0.2943,0.2968,0.2971,0.3074,0.3076,0.3117,0.3154,0.3227,0,0,0,0.2758,0.2781,0.2798,0.2832,0.2842,0.2915,0.2907,0.2951,0.2974,0.297,0.3075,0.3076,0.3116,0.3151,0.3223,0.3203,0.3218,0,0,0.2772,0.2782,0.2804,0.2822,0.2889,0.2903,0.2975,0.2994,0.3002,0.3052,0.3054,0.312,0.3154,0.3226,0.3292,0.3304,0,0,0,0.28,0.2815,0.284,0.2882,0.2936,0.2995,0.3017,0.3045,0.3097,0.3027,0.3139,0.316,0.3203,0.3184,0.3194,0.3084,0.3084,0.3083,0.3083,0.2782,0.2822,0.2861,0.2919,0.2972,0.3056,0.3112,0.3157,0.3142,0.3179,0.321,0.3316,0.3295,0.3302,0.3214,0.3214,0.3215,0.3215,0.3215,0.2789,0.2805,0.2869,0.2918,0.3001,0.3068,0.3202,0.3226,0.3328,0.3283,0.3323,0.3249,0.3316,0.3219,0.3218,0.3218,0.3217,0.3217,0.3217,0.2752,0.2766,0.28,0.2877,0.2974,0.3088,0.3221,0.3324,0.3384,0.3434,0.3426,0.3424,0.3354,0.3455,0.3456,0.3456,0.3457,0.3457,0.3457,0.269,0.273,0.2755,0.2848,0.29,0.304,0.3246,0.3341,0.3471,0.3501,0.35,0.3398,0.339,0.337,0.3465,0.3464,0.3463,0.3462,0.3461,0.2638,0.2661,0.2693,0.2734,0.2855,0.2917,0.3154,0.3362,0.349,0.3552,0.3543,0.3539,0.3532,0.3522,0.3506,0.3631,0.3631,0.3631,0.3631,0.2588,0.261,0.2624,0.2662,0.2744,0.2856,0.2919,0.3062,0.3307,0.3365,0.3375,0.3273,0.3275,0.3246,0.3242,0.3217,0.3267,0.3266,0.3265,0.2547,0.2566,0.2542,0.2588,0.2666,0.2732,0.2697,0.2648,0.288,0.3239,0.3189,0.363,0.3507,0.3498,0.3472,0.346,0.3426,0,0]},{"header":{"parameterUnit":"m.s-1","parameterCategory":2,"la1":30.2992,"la2":30.254,"lo1":-89.0895,"lo2":-89.0443,"dy":0.0025,"dx":0.0025,"nx":19,"ny":19,"refTime":"2026-05-02T09:00:00:Z","depth":"2","parameterNumber":3,"parameterNumberName":"V-component_of_CURRENTS"},"data":[0,0,0,0.0036,0.0035,-0.0011,-0.0011,-0.0069,-0.007,0,0,0,0,0,0,0,0,0,0,0,0.005,0.005,0.0036,0.0035,-0.0011,-0.0011,-0.0069,-0.007,0,0,0,0,0,0,0,0,0,0,0,0.005,0.005,0.005,0.0035,-0.0011,-0.0011,-0.0069,-0.0037,0,0,0,0,0,0,0,0,0,0,0.0006,0.0027,0.005,0.005,0.0035,-0.001,-0.0011,-0.0036,-0.0039,-0.0045,0,-0.0047,0,-0.0054,-0.0073,-0.0073,0,0,0,0.0024,0.003,0.0016,0.005,0.0035,-0.001,0.0007,-0.0038,-0.0042,-0.0049,-0.0047,-0.005,-0.0055,-0.0073,-0.0073,-0.0057,-0.0056,0,0,0.0027,0.0041,0.0019,0.0014,0.003,0.0009,0.0006,-0.004,-0.004,-0.0048,-0.0051,-0.0056,-0.0073,-0.0074,-0.0057,-0.0056,0,0,0,0.0042,0.0043,0.003,0.0016,0.0011,0.0008,0.0004,-0.0038,-0.0043,-0.0052,-0.0056,-0.0073,-0.0074,-0.0058,-0.0057,0.0053,0,0,0,0.0043,0.0052,0.0031,0.0039,0.0012,-0.0013,0.0008,-0.004,-0.0045,-0.0056,-0.0073,-0.0074,-0.0058,-0.0057,0.0049,0.0121,0,0,0,0.0051,0.0053,0.005,0.004,0.0025,-0.0012,-0.002,-0.0041,-0.0047,-0.0073,-0.0075,-0.0059,-0.0057,0.0045,0.0114,0.0153,0,0,0,0.0064,0.0095,0.005,0.0085,0.0025,0.0047,-0.002,-0.0021,-0.0035,-0.0074,-0.0058,-0.0057,0.0044,0.0109,0.0149,0.0241,0.0268,0,0,0.0118,0.0101,0.0124,0.0084,0.0138,0.0051,0.0099,0.004,-0.0021,-0.0047,-0.0046,0.0051,0.0113,0.0152,0.031,0.0336,0,0,0,0.0152,0.0172,0.018,0.0195,0.0183,0.0185,0.0118,0.0087,0.0052,-0.0023,0.0044,0.008,0.0101,0.0147,0.0168,-0.0051,-0.0051,-0.0051,-0.0052,0.0244,0.0243,0.03,0.0299,0.0302,0.0274,0.0266,0.0208,0.0132,0.0129,0.0164,0.0266,0.0317,0.0333,0.0144,0.0144,0.0144,0.0145,0.0145,0.0351,0.0391,0.0387,0.0436,0.0427,0.0447,0.0405,0.0355,0.0337,0.0256,0.027,0.0255,0.0362,0.0154,0.0152,0.0151,0.015,0.0149,0.0149,0.0415,0.0441,0.0457,0.0528,0.0583,0.0567,0.0645,0.0577,0.0457,0.0476,0.0486,0.0484,0.0338,0.047,0.047,0.0471,0.0471,0.0472,0.0472,0.0476,0.0503,0.0573,0.0636,0.0698,0.0783,0.0791,0.0787,0.0724,0.0632,0.0632,0.0375,0.0364,0.0356,0.048,0.0478,0.0477,0.0477,0.0476,0.0574,0.0574,0.0694,0.0764,0.0925,0.1087,0.1067,0.1079,0.1012,0.0997,0.0703,0.0695,0.0667,0.065,0.0647,0.0839,0.0839,0.0839,0.0839,0.0637,0.0646,0.0816,0.0957,0.1129,0.1236,0.1403,0.1334,0.1133,0.0976,0.0969,0.0918,0.0901,0.088,0.0857,0.0856,0.1103,0.1103,0.1103,0.0714,0.0757,0.0895,0.1023,0.1224,0.1407,0.1571,0.1493,0.1187,0.1109,0.0964,0.0867,0.077,0.0752,0.0696,0.0669,0.0656,0,0]}],[{"header":{"parameterUnit":"m.s-1","parameterCategory":2,"la1":30.2992,"la2":30.254,"lo1":-89.0895,"lo2":-89.0443,"dy":0.0025,"dx":0.0025,"nx":19,"ny":19,"refTime":"2026-05-02T09:00:00:Z","depth":"4","parameterNumber":2,"parameterNumberName":"U-component_of_CURRENTS"},"data":[0,0,0,0.1899,0.1904,0.2109,0.211,0.2272,0.2273,0,0,0,0,0,0,0,0,0,0,0,0.1833,0.1834,0.1899,0.1904,0.2109,0.211,0.2272,0.2273,0,0,0,0,0,0,0,0,0,0,0,0.1832,0.1834,0.1836,0.1905,0.2109,0.211,0.2272,0.2141,0,0,0,0,0,0,0,0,0,0,0.1954,0.1914,0.1833,0.1836,0.1906,0.2109,0.211,0.2136,0.2149,0.2151,0,0.2197,0,0.2237,0.2282,0.2283,0,0,0,0.1903,0.1903,0.1953,0.1836,0.1908,0.2109,0.2016,0.2144,0.2159,0.2168,0.2199,0.2206,0.2239,0.2283,0.2284,0.2437,0.2437,0,0,0.1891,0.1872,0.1943,0.1963,0.1978,0.201,0.2023,0.2155,0.2178,0.22,0.2211,0.2242,0.2284,0.2285,0.2436,0.2437,0,0,0,0.186,0.1864,0.1913,0.1955,0.2,0.2016,0.2031,0.2172,0.2188,0.2213,0.2244,0.2285,0.2286,0.2435,0.2436,0.2489,0,0,0,0.1853,0.1846,0.1908,0.1899,0.1998,0.2104,0.2045,0.2179,0.2196,0.2243,0.2285,0.2287,0.2434,0.2436,0.2486,0.2515,0,0,0,0.182,0.1842,0.187,0.1897,0.1986,0.2103,0.2128,0.2184,0.2214,0.2283,0.2288,0.2434,0.2435,0.2483,0.2511,0.2575,0,0,0,0.1786,0.1828,0.187,0.1935,0.1984,0.2102,0.2128,0.2229,0.2292,0.2285,0.2434,0.2436,0.2482,0.2508,0.2572,0.2247,0,0,0,0.1808,0.1831,0.1867,0.1909,0.2007,0.2072,0.2187,0.2281,0.2314,0.2381,0.2387,0.2487,0.251,0.2575,0.2349,0,0,0,0,0.1853,0.1883,0.1921,0.1997,0.2083,0.2188,0.2278,0.2329,0.2438,0.2361,0.2506,0.252,0.2559,0.2359,0.2444,0.2444,0.2444,0.2444,0.2443,0.1842,0.1895,0.1961,0.2046,0.2133,0.2276,0.2366,0.2455,0.2472,0.2536,0.2577,0.2682,0.2473,0.2589,0.2589,0.259,0.259,0.259,0.259,0.185,0.1876,0.198,0.2066,0.2189,0.2304,0.2472,0.2529,0.2669,0.2648,0.2683,0.2445,0.2596,0.2595,0.2594,0.2593,0.2593,0.2593,0.2592,0.1804,0.1822,0.1905,0.2035,0.2187,0.2346,0.249,0.2634,0.2726,0.2784,0.2593,0.2734,0.2715,0.2817,0.2818,0.2818,0.2818,0.2819,0.2819,0.1706,0.1786,0.1856,0.201,0.2108,0.2282,0.2529,0.2612,0.2747,0.2633,0.2821,0.2759,0.2751,0.2729,0.2826,0.2824,0.2824,0.2823,0.2822,0.1622,0.1683,0.1761,0.1852,0.2043,0.2139,0.2408,0.2496,0.2564,0.2539,0.2546,0.2558,0.2515,0.2515,0.2481,0.2509,0.2505,0.2501,0,0.1551,0.1589,0.1675,0.1761,0.1851,0.204,0.2061,0.2196,0.2322,0.2242,0.2569,0.2575,0.2581,0.2528,0.2522,0.2479,0,0,0,0.1494,0.1534,0.1551,0.1655,0.1741,0.1851,0.205,0.2024,0.2298,0.2274,0.2406,0.2431,0.2663,0.2846,0.2809,0.28,0.2763,0,0]},{"header":{"parameterUnit":"m.s-1","parameterCategory":2,"la1":30.2992,"la2":30.254,"lo1":-89.0895,"lo2":-89.0443,"dy":0.0025,"dx":0.0025,"nx":19,"ny":19,"refTime":"2026-05-02T09:00:00:Z","depth":"4","parameterNumber":3,"parameterNumberName":"V-component_of_CURRENTS"},"data":[0,0,0,0.0193,0.0192,0.0154,0.0154,0.0103,0.0103,0,0,0,0,0,0,0,0,0,0,0,0.0205,0.0205,0.0193,0.0192,0.0155,0.0154,0.0103,0.0103,0,0,0,0,0,0,0,0,0,0,0,0.0205,0.0205,0.0205,0.0192,0.0155,0.0154,0.0104,0.013,0,0,0,0,0,0,0,0,0,0,0.0166,0.0186,0.0205,0.0205,0.0192,0.0155,0.0154,0.0131,0.0128,0.0123,0,0.0124,0,0.0118,0.0101,0.01,0,0,0,0.0181,0.0188,0.0176,0.0205,0.0192,0.0155,0.0168,0.013,0.0126,0.012,0.0123,0.0121,0.0117,0.01,0.01,0.0106,0.0106,0,0,0.0184,0.0197,0.0178,0.0174,0.019,0.017,0.0167,0.0128,0.0129,0.0123,0.012,0.0116,0.01,0.01,0.0106,0.0106,0,0,0,0.0197,0.0199,0.0187,0.0176,0.0173,0.0169,0.0166,0.0131,0.0127,0.0119,0.0115,0.01,0.0099,0.0105,0.0106,0.0193,0,0,0,0.0198,0.0207,0.0189,0.0196,0.0174,0.0153,0.017,0.0129,0.0125,0.0116,0.01,0.0099,0.0105,0.0105,0.019,0.0247,0,0,0,0.0205,0.0208,0.0206,0.0197,0.0185,0.0153,0.0147,0.0128,0.0123,0.01,0.0099,0.0105,0.0105,0.0187,0.0241,0.0263,0,0,0,0.0217,0.0238,0.0206,0.0231,0.0186,0.0198,0.0147,0.0143,0.013,0.01,0.0105,0.0106,0.0186,0.0237,0.0259,0.0283,0,0,0,0.0254,0.0243,0.0258,0.023,0.0268,0.0202,0.0234,0.0188,0.0139,0.0115,0.0115,0.0191,0.0241,0.0262,0.0329,0,0,0,0,0.0278,0.0292,0.0297,0.0309,0.0298,0.0299,0.0247,0.0221,0.0191,0.0136,0.0183,0.0211,0.0222,0.0226,0.011,0.0109,0.0109,0.0109,0.0109,0.0341,0.0342,0.0384,0.0384,0.0386,0.0364,0.0356,0.0309,0.0252,0.0247,0.0276,0.0346,0.0354,0.0257,0.0257,0.0258,0.0258,0.0258,0.0258,0.0414,0.0443,0.0448,0.0487,0.0483,0.0499,0.0462,0.0423,0.0402,0.0344,0.0348,0.031,0.0267,0.0265,0.0264,0.0263,0.0262,0.0262,0.0261,0.0455,0.0475,0.0496,0.0557,0.0606,0.0596,0.0649,0.0597,0.0498,0.0508,0.048,0.0403,0.0402,0.05,0.05,0.05,0.0501,0.0501,0.0501,0.0489,0.0518,0.0578,0.0638,0.0695,0.0759,0.0764,0.0744,0.0653,0.0595,0.0534,0.0427,0.0419,0.0415,0.0507,0.0506,0.0505,0.0505,0.0504,0.0544,0.0556,0.0653,0.0718,0.085,0.0901,0.0913,0.0848,0.082,0.0752,0.0621,0.0614,0.0582,0.0571,0.057,0.0711,0.0712,0.0713,0,0.058,0.0592,0.0728,0.0844,0.0956,0.099,0.0994,0.0952,0.0816,0.08,0.0792,0.0648,0.064,0.0605,0.0596,0.0597,0,0,0,0.0624,0.0662,0.0764,0.0873,0.1003,0.1002,0.0994,0.0957,0.0842,0.0816,0.073,0.0725,0.0641,0.0523,0.0457,0.0447,0.0436,0,0]}]]